Regional Weather Roundup
Issued by NWS

Home | Current Version | Previous Version | Graphics & Text | Print | Product List | Glossary On
Versions: 1 2 3 4 5 6 7 8 9 10 11 12 13 14 15 16 17 18 19 20 21 22 23 24 25 26 27 28 29 30 31 32 33 34 35 36 37 38 39 40 41 42 43 44 45 46 47 48 49 50
000
ASUS43 KLOT 220710
RWRIL

ILLINOIS REGIONAL WEATHER ROUNDUP
NATIONAL WEATHER SERVICE CHICAGO/ROMEOVILLE IL
200 AM CDT MON SEP 22 2014

NOTE: "FAIR" INDICATES FEW OR NO CLOUDS BELOW 12,000 FEET WITH NO
SIGNIFICANT WEATHER AND/OR OBSTRUCTIONS TO VISIBILITY.

* THESE STATIONS ARE NOT UNDER NWS QUALITY CONTROL. THEY ALSO MAY NOT
  REPORT WEATHER SUCH AS PRECIPITATION OR FOG.

ILZ001-002-007-009-015-016-024-220800-
NORTHWEST ILLINOIS

CITY           SKY/WX    TMP DP  RH WIND       PRES   REMARKS
MOLINE         CLEAR     54  46  74 NW3       30.20R
STERLING*      CLEAR     48  43  81 NE6       30.20R
SAVANNA*       CLEAR     49  44  83 CALM      30.21R
$$

ILZ003-004-008-010-011-017-018-220800-
NORTH CENTRAL ILLINOIS

CITY           SKY/WX    TMP DP  RH WIND       PRES   REMARKS
ROCKFORD       CLEAR     47  42  83 N6        30.22R
FREEPORT*      CLEAR     45  43  94 CALM      30.22R
ROCHELLE*      CLEAR     44  42  93 N6        30.20R
DE KALB*       CLEAR     44  42  91 N6        30.20R
PERU*          CLEAR     48  45  87 N5        30.19R
$$

ILZ005-006-012>014-019>023-220800-
NORTHEAST ILLINOIS

CITY           SKY/WX    TMP DP  RH WIND       PRES   REMARKS
CHICAGO-OHARE  PTCLDY    50  42  74 N9        30.17R
CHICAGO-MIDWAY PTCLDY    53  45  74 N8        30.16R
AURORA         CLEAR     44  41  89 NW6       30.19R
LANSING*       CLOUDY    55  47  73 N7        30.15R
JOLIET*        CLEAR     48  44  88 CALM      30.18R
WAUKEGAN       CLEAR     45  41  86 NW5       30.17R
DUPAGE AIRPORT CLEAR     43  41  93 N6        30.17R
KANKAKEE*      CLEAR     49  45  84 NW3       30.17R
WHEELING       CLEAR     49  43  80 N7        30.18R
MORRIS*        CLEAR     45  45 100 CALM      30.17R
ROMEOVILLE*    CLEAR     47  44  89 N6        30.17R
NORTHERLY ISL    N/A     55  45  68 N15         N/A
$$

LMZ740>746-220800-
SOUTHERN LAKE MICHIGAN

STATION/POSITION SKY/WX   TEMP    WIND        PRES    VSBY  WAVE
                          AIR SEA DIR/SP/G                  HT/PER
                          (F)     (DEG/KT/KT) (MB)    (MI)  (FT/S)
SOUTHERN BUOY              53 61  350/ 19/ 25 1021.1R         7/ 8
WAUKEGAN HARBOR            49     330/  8/ 11   N/A
HARRISON CRIB              55      10/ 18/ 21   N/A
BURNHAM HARBOR             55      10/ 13/ 16   N/A
CALUMET HARBOR             56     350/ 10/ 19 1019.9S
MICHIGAN CITY              55     360/ 22/ 26   N/A
MICHIGAN CITY 6N           56 64   10/ 17/ 23   N/A           8/ 6
ST. JOSEPH                 55 65  360/ 19/ 27   N/A           7/ 6
$$

ILZ025>027-034>036-040-047-049-050-058-095>099-220800-
WEST-CENTRAL ILLINOIS

CITY           SKY/WX    TMP DP  RH WIND       PRES   REMARKS
QUINCY         CLEAR     52  49  89 NW7       30.21R
GALESBURG*     CLEAR     46  45  95 CALM      30.20R
MACOMB*        CLEAR     47  46  96 NW6       30.22S
JACKSONVILLE*  CLEAR     53  50  92 NW6       30.20R
PITTSFIELD*    CLEAR     56  49  79 NW6       30.21R
$$

ILZ028>032-037-038-041>044-048-051>054-059>061-220800-
CENTRAL ILLINOIS

CITY           SKY/WX    TMP DP  RH WIND       PRES   REMARKS
PONTIAC        CLEAR     46  46 100 CALM      30.17R
DECATUR        CLEAR     53  50  89 N8        30.17R
PEORIA         CLEAR     53  48  83 N3        30.19R
LACON*         CLEAR     48  46  94 CALM      30.18R
LINCOLN*       CLEAR     52  50  93 NW3       30.17R
SPRINGFIELD    CLEAR     54  50  86 N7        30.18R
TAYLORVILLE    CLEAR     50  50 100 N3        30.18R
$$

ILZ033-039-045-046-055>057-062-063-220800-
EAST-CENTRAL ILLINOIS

CITY           SKY/WX    TMP DP  RH WIND       PRES   REMARKS
CHAMPAIGN      CLEAR     48  47  96 NW5       30.16R
DANVILLE*      CLEAR     49  48  97 NW3       30.13S
RANTOUL*       CLEAR     50  47  88 NW3       30.17S
MATTOON        CLEAR     49  47  93 NW5       30.15S
PARIS*         CLEAR     51  51  99 CALM      30.16R
$$

ILZ079-100>102-220800-
SOUTHWEST ILLINOIS

CITY           SKY/WX    TMP DP  RH WIND       PRES   REMARKS
ALTON          CLEAR     54  50  86 NW5       30.18S
BELLEVILLE     CLEAR     55  51  88 W3        30.17R
CAHOKIA*       CLEAR     54  51  90 CALM      30.18S
SPARTA*        CLEAR     55  50  85 CALM      30.18S
$$

ILZ064>066-069>071-074>076-080>082-084>086-088>090-092>094-220800-
SOUTH-CENTRAL ILLINOIS

CITY           SKY/WX    TMP DP  RH WIND       PRES   REMARKS
CARBONDALE     CLEAR     53  50  89 CALM      30.16R
CAIRO*         CLEAR     58  51  76 CALM      30.15S
EFFINGHAM*     CLEAR     54  49  84 CALM      30.16R
MARION         CLEAR     57  52  82 CALM      30.16R
MT. VERNON     CLEAR     55  48  76 N5        30.16R
CENTRALIA*     CLEAR     53  49  87 NW5       30.16R
SALEM*         CLEAR     53  51  94 N3        30.16S
METROPOLIS*    CLEAR     54  52  95 CALM      30.13S
$$

ILZ067-068-072-073-078-083-087-091-220800-
SOUTHEAST ILLINOIS

CITY           SKY/WX    TMP DP  RH WIND       PRES   REMARKS
LAWRENCEVILLE  CLEAR     56  51  84 N9        30.13S
FLORA*         CLEAR     55  50  85 N6        30.16R
FAIRFIELD*     CLEAR    N/A N/A N/A N6        30.14S
HARRISBURG*    CLEAR     54  52  90 CALM      30.15S
ROBINSON*      CLEAR     54  52  94 NW6       30.15R
CARMI*         CLEAR     54  52  94 NW3       30.13S
$$

ABBREVIATIONS USED IN REMARKS
   TC - TEMPERATURE IN CELSIUS
  WCI - WIND CHILL INDEX
   HX - HEAT INDEX
  VSB - VISIBILITY
$$



USA.gov is the U.S. government's official web portal to all federal, state and local government web resources and services.